STARLINK-2255 (48597 NORAD) Tracking and Keplerian Element Data

This shows tracking and keplerian element data for the satellite.

Feedback or suggestion? Click here.




ElementValue
Catalog48597
NameSTARLINK-2255
Epoch Orbit2416
Epoch Day288.00629056
Epoch Year2021
RAAN154.2987
Inclination53.0545
Eccentricity0.0001322
Argument of Perigee75.6985
Mean Anonmoly284.4151
Mean Motion15.06419164
Decay Rate4.842E-05
L11 48597U 21041AW 21288.00629056 .00004842 00000-0 34354-3 0 9990
L22 48597 53.0545 154.2987 0001322 75.6985 284.4151 15.06419164 24166

Live tracking and technical data element details for STARLINK-2255 (NORAD 48597). STARLINK-2255 can be tracked NOW for your location showing map with azimuth and elevation plus other details from your city location.

Track the satellite on the map from your city or location and see movement details for azimuth, elevation, latitude, longitude, range, height, and movement on the map or in text.







IsCatalogInMostPopularTable: catalog: 48597, numindb: 44
Update: records affected: 1



GetName: 48597 STARLINK-2255

Hit Count: updated at: Tue, 19 Oct 2021 08:19:51 GMT